EDT,Max TemperatureF,Mean TemperatureF,Min TemperatureF,Max Dew PointF,MeanDew PointF,Min DewpointF,Max Humidity, Mean Humidity, Min Humidity, Max Sea Level PressureIn, Mean Sea Level PressureIn, Min Sea Level PressureIn, Max VisibilityMiles, Mean VisibilityMiles, Min VisibilityMiles, Max Wind SpeedMPH, Mean Wind SpeedMPH, Max Gust SpeedMPH,PrecipitationIn, CloudCover, Events, WindDirDegrees
2013-3-1,48,37,26,32,28,24,92,62,46,29.95,29.93,29.89,10,10,10,8,3,16,0.00,6,Rain,332
2013-3-2,42,38,33,37,31,23,100,82,60,29.96,29.90,29.85,10,6,0,9,2,,0.17,7,Fog-Rain-Snow,93
2013-3-3,46,36,25,23,19,16,81,52,34,30.04,29.97,29.91,10,10,10,14,7,18,0.00,0,,343
2013-3-4,53,36,19,28,19,15,88,52,23,30.17,30.10,30.04,10,10,10,9,4,,0.00,0,,254
2013-3-5,59,46,33,54,43,24,100,78,53,30.08,29.80,29.61,10,8,2,16,5,24,0.46,6,Rain,237
2013-3-6,48,41,33,44,26,21,90,56,36,30.14,29.87,29.64,10,10,10,23,12,32,0.00,2,,312
2013-3-7,51,39,27,29,26,23,88,62,38,30.28,30.21,30.15,10,10,10,15,4,16,0.00,0,,348
2013-3-8,57,42,28,27,23,20,81,50,24,30.35,30.28,30.22,10,10,7,13,7,18,0.00,0,Rain,14
2013-3-9,63,48,33,35,28,25,73,51,27,30.36,30.30,30.24,10,10,10,8,4,,0.00,0,,24
2013-3-10,66,50,34,40,35,32,92,56,29,30.32,30.24,30.18,10,8,2,9,2,,0.00,0,,177
2013-3-11,71,57,44,55,40,16,87,53,28,30.18,30.03,29.87,10,10,7,16,6,25,0.04,4,Rain,173
2013-3-12,70,60,48,59,51,27,100,77,25,29.99,29.83,29.75,10,7,2,14,9,22,0.76,5,Rain,238
2013-3-13,59,46,35,33,25,17,85,48,26,30.17,30.06,29.99,10,10,10,16,6,26,0.00,1,,318
2013-3-14,54,42,30,24,18,13,59,41,21,30.31,30.23,30.18,10,10,10,14,7,,0.00,0,,326
2013-3-15,66,46,28,35,25,20,81,53,30,30.23,30.16,29.96,10,10,10,16,5,18,0.00,0,,229
2013-3-16,,,,,,,,,,,,,,,,,,,,,,
2013-3-17,,,,,,,,,,,,,,,,,,,,,,
2013-3-18,,,,,,,,,,,,,,,,,,,,,,
2013-3-19,66,58,50,45,25,16,69,29,16,30.05,29.97,29.93,10,10,10,18,9,26,0.00,0,,319
2013-3-20,57,47,39,24,17,10,49,31,20,30.12,29.98,29.80,10,10,5,14,5,20,0.00,3,,338
2013-3-21,48,39,30,23,13,8,61,36,22,29.99,29.88,29.81,10,10,10,16,8,30,0.00,0,,325
2013-3-22,52,39,26,28,17,11,71,43,25,30.11,30.05,30.01,10,10,8,13,4,,0.00,3,Rain,245
2013-3-23,50,42,37,42,37,27,100,80,53,30.08,29.99,29.90,10,7,1,7,3,,0.05,5,Rain,171
2013-3-24,44,40,37,43,40,38,100,95,87,29.91,29.70,29.57,10,4,1,14,5,20,0.80,8,Rain,42
2013-3-25,50,42,35,40,30,20,100,70,36,29.93,29.68,29.56,10,9,4,20,6,31,0.01,6,Rain,265
2013-3-26,48,38,28,25,23,22,75,55,39,30.20,30.03,29.94,10,10,10,13,8,20,0.00,4,,296
2013-3-27,55,42,28,24,22,20,78,49,25,30.28,30.23,30.19,10,10,10,16,6,21,0.00,0,Rain,335
2013-3-28,59,42,26,26,22,16,84,48,19,30.32,30.27,30.20,10,10,10,14,4,21,0.00,0,,348
2013-3-29,63,44,27,38,26,22,89,50,22,30.37,30.29,30.22,10,10,10,10,2,21,0.00,3,Rain,282
2013-3-30,66,56,46,47,44,40,100,70,40,30.22,30.15,30.06,10,9,4,7,2,,0.07,4,Rain,127
2013-3-31,72,62,51,56,52,47,100,81,47,30.04,29.92,29.82,10,8,2,20,7,30,0.26,6,Rain,222